Location: Arcones
(41.1182°N, 3.7238°W)
Time: 04:20:39
(UTC+00:00)

Cosmos 2263 Rocket - Pass Details

Date: 24 March 2026
Orbit: 823 x 846 km, 71.0° (Epoch: 17 April)

Event Time Altitude Azimuth Distance (km) Brightness Sun altitude
Rises 21:13:51 0° 337° (NNW) 3,389 6.1 -29.7°
Reaches altitude 10° 21:16:19 10° 339° (NNW) 2,448 5.2 -30.1°
Enters shadow 21:20:35 52° 355° (N) 1,022 2.7 -30.8°
